Location: Poughquag
(41.6090°N, 73.6820°W)
Time: 04:55:09
(UTC-04:00)

Explorer 7 - All Passes

Search period start: 29 September 2020 00:00
Search period end: 09 October 2020 00:00
Orbit: 484 x 679 km, 50.3° (Epoch: 29 September)

Date Brightness Start Highest point End Pass type
(mag) Time Alt. Az. Time Alt. Az. Time Alt. Az.
29 Sep - 00:01:36 10° SSE 00:04:16 16° SE 00:07:02 10° E night (unlit)
29 Sep - 01:39:42 10° SW 01:44:13 84° SE 01:49:00 10° ENE night (unlit)
29 Sep - 03:20:55 10° W 03:25:13 35° NNW 03:29:42 10° NE visible
29 Sep - 05:02:33 10° NW 05:06:48 30° N 05:11:07 10° ENE visible
29 Sep - 06:43:18 10° NW 06:48:09 57° NNE 06:52:59 10° ESE daylight
29 Sep - 08:24:11 10° WNW 08:28:40 36° SW 08:33:04 10° SSE daylight
30 Sep - 00:05:07 10° S 00:08:44 25° SE 00:12:32 10° ENE night (unlit)
30 Sep - 01:44:29 10° WSW 01:48:59 69° NNW 01:53:45 10° NE night (unlit)
30 Sep - 03:26:02 10° WNW 03:30:12 31° N 03:34:32 10° NE visible
30 Sep - 05:07:26 10° NW 05:11:48 33° NNE 05:16:14 10° ENE visible
30 Sep - 06:48:02 10° NW 06:52:57 78° NNE 06:57:51 10° ESE daylight
30 Sep - 08:29:19 10° W 08:33:12 24° SW 08:37:02 10° S daylight
01 Oct - 00:09:11 10° SSW 00:13:16 40° SE 00:17:37 10° ENE night (unlit)
01 Oct - 01:49:25 10° W 01:53:49 50° NNW 01:58:29 10° NE night (unlit)
01 Oct - 03:31:06 10° WNW 03:35:13 29° N 03:39:27 10° ENE visible
01 Oct - 05:12:14 10° NW 05:16:45 38° NNE 05:21:20 10° E visible
01 Oct - 06:52:48 10° WNW 06:57:42 74° SW 07:02:35 10° SE daylight
01 Oct - 08:34:57 10° W 08:37:40 15° SW 08:40:23 10° SSW daylight
01 Oct - 22:37:41 10° SE 22:38:11 10° SE 22:38:42 10° ESE night (unlit)
02 Oct - 00:13:35 10° SW 00:17:55 62° SE 00:22:30 10° ENE night (unlit)
02 Oct - 01:54:26 10° W 01:58:43 39° NNW 02:03:13 10° NE visible
02 Oct - 03:36:07 10° WNW 03:40:13 28° N 03:44:27 10° ENE visible
02 Oct - 05:16:58 10° NW 05:21:39 47° NNE 05:26:24 10° E visible
02 Oct - 06:57:38 10° WNW 07:02:21 49° SW 07:07:04 10° SSE daylight
02 Oct - 22:39:46 10° S 22:42:36 17° SE 22:45:34 10° E night (unlit)
03 Oct - 00:18:13 10° WSW 00:22:36 88° NNW 00:27:18 10° ENE night (unlit)
03 Oct - 01:59:31 10° WNW 02:03:39 33° NNW 02:08:00 10° NE visible
03 Oct - 03:41:03 10° NW 03:45:13 30° N 03:49:32 10° ENE visible
03 Oct - 05:21:41 10° NW 05:26:30 62° NNE 05:31:22 10° ESE visible
03 Oct - 07:02:37 10° WNW 07:06:57 32° SW 07:11:16 10° SSE daylight
03 Oct - 22:43:27 10° SSW 22:47:05 28° SE 22:50:55 10° ENE night (unlit)
04 Oct - 00:23:02 10° WSW 00:27:23 62° NNW 00:32:02 10° NE night (unlit)
04 Oct - 02:04:37 10° WNW 02:08:39 29° N 02:12:51 10° NE visible
04 Oct - 03:45:53 10° NW 03:50:12 33° NNE 03:54:38 10° ENE visible
04 Oct - 05:26:26 10° WNW 05:31:17 86° NNE 05:36:13 10° ESE visible
04 Oct - 07:07:51 10° W 07:11:29 21° SW 07:15:06 10° S daylight
04 Oct - 22:47:36 10° SSW 22:51:38 44° SE 22:55:57 10° ENE night (unlit)
05 Oct - 00:28:00 10° W 00:32:14 45° NNW 00:36:45 10° NE night (unlit)
05 Oct - 02:09:40 10° WNW 02:13:39 28° N 02:17:47 10° ENE night (unlit)
05 Oct - 03:50:39 10° NW 03:55:08 40° NNE 03:59:44 10° E visible
05 Oct - 05:31:12 10° WNW 05:36:00 66° SW 05:40:51 10° SE visible
05 Oct - 07:13:45 10° W 07:15:55 13° SW 07:18:07 10° SSW daylight
05 Oct - 21:15:09 10° SE 21:16:31 11° SE 21:17:54 10° ESE night (unlit)
05 Oct - 22:52:04 10° SW 22:56:17 70° SE 23:00:47 10° ENE night (unlit)
06 Oct - 00:33:03 10° W 00:37:09 36° NNW 00:41:29 10° NE night (unlit)
06 Oct - 02:14:39 10° NW 02:18:39 28° N 02:22:49 10° ENE night (unlit)
06 Oct - 03:55:23 10° NW 04:00:01 50° NNE 04:04:47 10° E visible
06 Oct - 05:36:03 10° WNW 05:40:39 43° SW 05:45:17 10° SSE visible
06 Oct - 21:17:58 10° S 21:20:57 19° SE 21:24:02 10° E night (unlit)
06 Oct - 22:56:46 10° WSW 23:01:00 79° NNW 23:05:33 10° NE night (unlit)
07 Oct - 00:38:08 10° WNW 00:42:06 31° N 00:46:16 10° NE night (unlit)
07 Oct - 02:19:32 10° NW 02:23:38 30° N 02:27:54 10° ENE night (unlit)
07 Oct - 04:00:05 10° NW 04:04:50 68° NNE 04:09:43 10° ESE visible
07 Oct - 05:41:05 10° WNW 05:45:13 28° SW 05:49:23 10° SSE visible
07 Oct - 21:21:48 10° SSW 21:25:26 31° SE 21:29:17 10° ENE night (unlit)
07 Oct - 23:01:37 10° WSW 23:05:48 55° NNW 23:10:16 10° NE night (unlit)
08 Oct - 00:43:13 10° WNW 00:47:05 28° N 00:51:08 10° NE night (unlit)
08 Oct - 02:24:20 10° NW 02:28:35 34° NNE 02:33:00 10° E night (unlit)
08 Oct - 04:04:49 10° WNW 04:09:35 86° SSW 04:14:30 10° SE visible
08 Oct - 05:46:26 10° W 05:49:43 18° SW 05:53:01 10° S visible
08 Oct - 21:26:03 10° SW 21:30:00 49° SE 21:34:15 10° ENE night (unlit)
08 Oct - 23:06:36 10° W 23:10:39 41° NNW 23:14:59 10° NE night (unlit)
